User: anonymous   Login
Location: ??????
(55.6500°N, 37.8000°E)
Time: 13:29:56
(UTC+00:00)
Language:

Cosmos 2322 Rocket - Orbit

View from above orbital plane
View from above orbital plane
View from above satellite
View from above satellite

Ground track
Ground track

The orbit data is extracted from the following two-line orbital elements,

1 23705U 95058B   24174.12455465  .00000286  00000-0  17098-3 0  9998
2 23705  71.0225  53.4880 0012995 344.1588  15.9127 14.15348915479638
Epoch (UTC): 22 June 2024 02:59:21
Eccentricity: 0.0012995
inclination: 71.0225°
perigee height: 832 km
apogee height: 850 km
right ascension of ascending node: 53.4880°
argument of perigee: 344.1588°
revolutions per day: 14.15348915
mean anomaly at epoch: 15.9127°
orbit number at epoch: 47963

The dashed part of the orbit path shows where the satellite is in the earth's shadow,  

DLR